TUI7GT EDDH-EDLW

Flight info

Callsign TUI7GT
Flight time 0h 36m
Altitude 24000
Route HABFU1G/33 HABFU Y348 MAWEQ Z718 OSNAD M170 HMM N853 DOMEG DOMEG2A
Aircraft B738/M-SDE2E3FGHIRWXY/LB1

Departure

Time 2026-05-06 17:49
Airport Hamburg Helmut Schmidt Airport (EDDH)

Arrival

Time 2026-05-06 18:25
Airport Dortmund Airport (EDLW)
Time Latitude Longitude Altitude Speed Heading
2026-05-06 17:13 53.62972 10.00273 63 ft 0 kts 120°
2026-05-06 17:14 53.63114 10.00370 63 ft 0 kts 120°
2026-05-06 17:39 53.63114 10.00348 62 ft 2 kts 88°
2026-05-06 17:39 53.63114 10.00323 62 ft 2 kts 102°
2026-05-06 17:39 53.63119 10.00299 62 ft 2 kts 118°
2026-05-06 17:40 53.63128 10.00278 62 ft 2 kts 135°
2026-05-06 17:40 53.63140 10.00263 62 ft 2 kts 152°
2026-05-06 17:40 53.63154 10.00254 62 ft 2 kts 169°
2026-05-06 17:40 53.63161 10.00252 62 ft 1 kts 178°
2026-05-06 17:41 53.63164 10.00252 62 ft 0 kts 175°
2026-05-06 17:43 53.63153 10.00253 62 ft 3 kts 175°
2026-05-06 17:43 53.63122 10.00259 62 ft 5 kts 173°
2026-05-06 17:43 53.63080 10.00258 62 ft 6 kts 184°
2026-05-06 17:44 53.63034 10.00224 62 ft 7 kts 213°
2026-05-06 17:44 53.62989 10.00176 62 ft 8 kts 211°
2026-05-06 17:44 53.62933 10.00116 62 ft 9 kts 213°
2026-05-06 17:44 53.62890 10.00069 62 ft 5 kts 212°
2026-05-06 17:45 53.62871 10.00042 62 ft 2 kts 239°
2026-05-06 17:45 53.62863 10.00018 62 ft 3 kts 241°
2026-05-06 17:45 53.62854 9.99990 62 ft 1 kts 241°
2026-05-06 17:45 53.62846 9.99966 62 ft 1 kts 241°
2026-05-06 17:46 53.62846 9.99964 62 ft 0 kts 241°
2026-05-06 17:46 53.62846 9.99963 62 ft 0 kts 241°
2026-05-06 17:46 53.62833 9.99926 62 ft 6 kts 241°
2026-05-06 17:47 53.62808 9.99847 62 ft 6 kts 241°
2026-05-06 17:47 53.62810 9.99796 62 ft 5 kts 326°
2026-05-06 17:47 53.62832 9.99778 62 ft 2 kts 333°
2026-05-06 17:47 53.62833 9.99776 62 ft 0 kts 334°
2026-05-06 17:48 53.62835 9.99775 62 ft 0 kts 333°
2026-05-06 17:48 53.62904 9.99716 62 ft 36 kts 332°
2026-05-06 17:49 53.63357 9.99323 62 ft 102 kts 333°
2026-05-06 17:49 53.64151 9.98635 63 ft 152 kts 333°
2026-05-06 17:49 53.65154 9.97746 427 ft 165 kts 335°
2026-05-06 17:49 53.66170 9.96862 1003 ft 170 kts 336°
2026-05-06 17:50 53.67275 9.95919 1348 ft 190 kts 335°
2026-05-06 17:50 53.68502 9.94864 1766 ft 201 kts 336°
2026-05-06 17:50 53.69761 9.93800 2204 ft 205 kts 337°
2026-05-06 17:50 53.71030 9.92459 2375 ft 232 kts 317°
2026-05-06 17:51 53.71745 9.89959 2891 ft 251 kts 277°
2026-05-06 17:51 53.71456 9.86996 3437 ft 259 kts 247°
2026-05-06 17:51 53.70662 9.84156 3805 ft 270 kts 245°
2026-05-06 17:51 53.69947 9.81228 4215 ft 277 kts 250°
2026-05-06 17:52 53.69296 9.78160 4958 ft 279 kts 252°
2026-05-06 17:52 53.68658 9.75047 5596 ft 286 kts 252°
2026-05-06 17:52 53.68018 9.71850 6390 ft 286 kts 252°
2026-05-06 17:52 53.67391 9.68689 7117 ft 289 kts 252°
2026-05-06 17:53 53.66747 9.65469 7913 ft 290 kts 252°
2026-05-06 17:53 53.66112 9.62247 8659 ft 293 kts 252°
2026-05-06 17:53 53.65342 9.59036 9427 ft 296 kts 239°
2026-05-06 17:53 53.63967 9.56545 9860 ft 298 kts 213°
2026-05-06 17:54 53.62143 9.54873 9901 ft 295 kts 206°
2026-05-06 17:54 53.60303 9.53313 9885 ft 293 kts 207°
2026-05-06 17:54 53.58512 9.51709 9885 ft 292 kts 208°
2026-05-06 17:54 53.56687 9.50060 10031 ft 310 kts 208°
2026-05-06 17:55 53.54743 9.48296 10419 ft 327 kts 208°
2026-05-06 17:55 53.52678 9.46417 10673 ft 347 kts 209°
2026-05-06 17:55 53.50557 9.44488 11417 ft 350 kts 209°
2026-05-06 17:55 53.48369 9.42506 11968 ft 360 kts 210°
2026-05-06 17:56 53.46203 9.40548 12868 ft 358 kts 210°
2026-05-06 17:56 53.43996 9.38544 13647 ft 361 kts 210°
2026-05-06 17:56 53.41808 9.36535 14503 ft 361 kts 210°
2026-05-06 17:56 53.39614 9.34488 15322 ft 362 kts 210°
2026-05-06 17:57 53.37434 9.32433 16043 ft 365 kts 209°
2026-05-06 17:57 53.35213 9.30364 16795 ft 366 kts 209°
2026-05-06 17:57 53.32886 9.28631 17455 ft 370 kts 198°
2026-05-06 17:57 53.30393 9.27599 18173 ft 372 kts 193°
2026-05-06 17:58 53.27834 9.26743 18768 ft 377 kts 192°
2026-05-06 17:58 53.25234 9.25926 19357 ft 380 kts 191°
2026-05-06 17:58 53.22636 9.25134 19830 ft 386 kts 191°
2026-05-06 17:58 53.19956 9.24322 19884 ft 389 kts 191°
2026-05-06 17:59 53.17318 9.23528 19908 ft 389 kts 191°
2026-05-06 17:59 53.14678 9.22738 20629 ft 388 kts 191°
2026-05-06 17:59 53.12019 9.21945 21086 ft 395 kts 191°
2026-05-06 17:59 53.09312 9.21139 21696 ft 397 kts 191°
2026-05-06 18:00 53.06594 9.20333 22214 ft 400 kts 191°
2026-05-06 18:00 53.03870 9.19526 22669 ft 405 kts 191°
2026-05-06 18:00 53.01041 9.18689 22983 ft 410 kts 191°
2026-05-06 18:00 52.98258 9.17760 23228 ft 409 kts 195°
2026-05-06 18:01 52.95548 9.16491 23478 ft 408 kts 199°
2026-05-06 18:01 52.92934 9.14785 23726 ft 409 kts 206°
2026-05-06 18:01 52.90390 9.12649 23886 ft 411 kts 208°
2026-05-06 18:01 52.88311 9.10845 23887 ft 412 kts 208°
2026-05-06 18:02 52.82737 9.06034 23884 ft 410 kts 208°
2026-05-06 18:02 52.80190 9.03828 23885 ft 410 kts 208°
2026-05-06 18:02 52.77717 9.01682 23883 ft 410 kts 208°
2026-05-06 18:03 52.75198 8.99497 23878 ft 410 kts 208°
2026-05-06 18:03 52.72718 8.97345 23872 ft 411 kts 208°
2026-05-06 18:03 52.70183 8.95145 23867 ft 411 kts 208°
2026-05-06 18:03 52.67695 8.92988 23862 ft 411 kts 209°
2026-05-06 18:04 52.65173 8.90802 23859 ft 411 kts 209°
2026-05-06 18:04 52.62643 8.88609 23857 ft 411 kts 209°
2026-05-06 18:04 52.60125 8.86428 23857 ft 412 kts 209°
2026-05-06 18:04 52.57595 8.84240 23858 ft 413 kts 209°
2026-05-06 18:05 52.55061 8.82052 23858 ft 413 kts 209°
2026-05-06 18:05 52.52531 8.79870 23857 ft 413 kts 209°
2026-05-06 18:05 52.49999 8.77688 23858 ft 414 kts 209°
2026-05-06 18:05 52.47455 8.75499 23858 ft 414 kts 209°
2026-05-06 18:06 52.44960 8.73355 23858 ft 414 kts 209°
2026-05-06 18:06 52.42630 8.71355 23857 ft 415 kts 209°
2026-05-06 18:06 52.37714 8.67143 23858 ft 416 kts 209°
2026-05-06 18:07 52.35207 8.65001 23857 ft 416 kts 209°
2026-05-06 18:07 52.32687 8.62781 23856 ft 417 kts 212°
2026-05-06 18:07 52.30306 8.60116 23856 ft 416 kts 220°
2026-05-06 18:07 52.28247 8.57012 23852 ft 415 kts 229°
2026-05-06 18:08 52.26549 8.53365 23852 ft 415 kts 238°
2026-05-06 18:08 52.25194 8.49291 23850 ft 415 kts 246°
2026-05-06 18:08 52.24111 8.45045 23850 ft 415 kts 249°
2026-05-06 18:08 52.23113 8.40964 23845 ft 415 kts 249°
2026-05-06 18:09 52.22041 8.36651 23842 ft 415 kts 249°
2026-05-06 18:09 52.20900 8.32513 23837 ft 417 kts 243°
2026-05-06 18:09 52.19601 8.28851 23827 ft 415 kts 238°
2026-05-06 18:09 52.17833 8.24951 23394 ft 404 kts 229°
2026-05-06 18:10 52.15962 8.21716 23074 ft 392 kts 226°
2026-05-06 18:10 52.14156 8.18679 22505 ft 388 kts 227°
2026-05-06 18:10 52.12319 8.15555 21980 ft 382 kts 227°
2026-05-06 18:10 52.10508 8.12480 21377 ft 378 kts 227°
2026-05-06 18:11 52.08745 8.09495 20810 ft 374 kts 227°
2026-05-06 18:11 52.06957 8.06474 20177 ft 372 kts 227°
2026-05-06 18:11 52.05168 8.03454 19122 ft 382 kts 227°
2026-05-06 18:11 52.03342 8.00381 18418 ft 379 kts 227°
2026-05-06 18:12 52.01510 7.97297 17665 ft 378 kts 227°
2026-05-06 18:12 51.99691 7.94240 16941 ft 375 kts 227°
2026-05-06 18:12 51.97896 7.91225 16236 ft 372 kts 227°
2026-05-06 18:12 51.96121 7.88250 15575 ft 369 kts 227°
2026-05-06 18:13 51.94343 7.85273 14880 ft 366 kts 227°
2026-05-06 18:13 51.92614 7.82383 14240 ft 362 kts 227°
2026-05-06 18:13 51.90876 7.79480 13560 ft 359 kts 227°
2026-05-06 18:13 51.89293 7.76840 13359 ft 343 kts 227°
2026-05-06 18:14 51.87854 7.74446 13271 ft 327 kts 227°
2026-05-06 18:14 51.86080 7.71558 13160 ft 309 kts 222°
2026-05-06 18:14 51.84327 7.69645 12939 ft 300 kts 209°
2026-05-06 18:14 51.82505 7.68179 12582 ft 296 kts 208°
2026-05-06 18:15 51.80679 7.66696 12179 ft 294 kts 208°
2026-05-06 18:15 51.78877 7.65215 11763 ft 292 kts 208°
2026-05-06 18:15 51.77062 7.63724 11308 ft 292 kts 208°
2026-05-06 18:15 51.75269 7.62271 10867 ft 291 kts 207°
2026-05-06 18:16 51.73473 7.60827 10432 ft 291 kts 207°
2026-05-06 18:16 51.71703 7.59394 9978 ft 291 kts 208°
2026-05-06 18:16 51.69868 7.57951 9428 ft 295 kts 207°
2026-05-06 18:16 51.68036 7.56519 9071 ft 292 kts 207°
2026-05-06 18:17 51.66235 7.55106 8625 ft 292 kts 208°
2026-05-06 18:17 51.64411 7.53681 8240 ft 290 kts 208°
2026-05-06 18:17 51.62599 7.52258 7807 ft 289 kts 207°
2026-05-06 18:17 51.60794 7.50834 7442 ft 287 kts 207°
2026-05-06 18:18 51.59062 7.49469 7026 ft 286 kts 207°
2026-05-06 18:18 51.57311 7.48068 6641 ft 285 kts 208°
2026-05-06 18:18 51.55566 7.46672 6252 ft 283 kts 207°
2026-05-06 18:18 51.53827 7.45275 5613 ft 282 kts 209°
2026-05-06 18:19 51.52309 7.43432 4974 ft 278 kts 232°
2026-05-06 18:19 51.51268 7.40868 4376 ft 273 kts 243°
2026-05-06 18:19 51.50334 7.38236 3732 ft 273 kts 243°
2026-05-06 18:19 51.49393 7.35613 3318 ft 272 kts 243°
2026-05-06 18:20 51.48377 7.33292 3022 ft 271 kts 224°
2026-05-06 18:20 51.46785 7.31799 2978 ft 255 kts 193°
2026-05-06 18:20 51.45116 7.31736 2988 ft 239 kts 162°
2026-05-06 18:20 51.43690 7.32999 2999 ft 234 kts 133°
2026-05-06 18:21 51.42474 7.34712 2994 ft 228 kts 142°
2026-05-06 18:21 51.41283 7.36264 2979 ft 215 kts 122°
2026-05-06 18:21 51.40739 7.38398 2994 ft 207 kts 88°
2026-05-06 18:21 51.41049 7.40573 2996 ft 200 kts 54°
2026-05-06 18:22 51.42042 7.42071 3005 ft 197 kts 32°
2026-05-06 18:22 51.43288 7.42960 2984 ft 198 kts
2026-05-06 18:22 51.44656 7.43084 2928 ft 198 kts 18°
2026-05-06 18:22 51.45830 7.44177 2782 ft 196 kts 40°
2026-05-06 18:23 51.46731 7.45836 2480 ft 200 kts 53°
2026-05-06 18:23 51.47463 7.47734 2291 ft 195 kts 57°
2026-05-06 18:23 51.48076 7.49685 1859 ft 202 kts 65°
2026-05-06 18:23 51.48608 7.51709 1574 ft 192 kts 59°
2026-05-06 18:24 51.49232 7.53564 1314 ft 181 kts 62°
2026-05-06 18:24 51.49765 7.55325 1009 ft 174 kts 61°
2026-05-06 18:24 51.50272 7.56965 1070 ft 157 kts 59°
2026-05-06 18:24 51.50832 7.58432 862 ft 153 kts 53°
2026-05-06 18:25 51.51318 7.59797 613 ft 129 kts 54°
2026-05-06 18:25 51.51772 7.61061 419 ft 122 kts 58°
2026-05-06 18:25 51.52065 7.61886 408 ft 55 kts 60°
2026-05-06 18:25 51.52193 7.62256 403 ft 11 kts 72°
2026-05-06 18:26 51.52175 7.62319 403 ft 5 kts 147°
2026-05-06 18:26 51.52153 7.62341 403 ft 3 kts 149°
2026-05-06 18:26 51.52108 7.62382 403 ft 9 kts 150°
2026-05-06 18:26 51.52055 7.62391 404 ft 7 kts 223°
2026-05-06 18:27 51.52032 7.62334 405 ft 4 kts 239°
2026-05-06 18:27 51.52015 7.62287 406 ft 6 kts 239°
2026-05-06 18:27 51.51988 7.62211 407 ft 9 kts 240°
2026-05-06 18:27 51.51956 7.62118 408 ft 10 kts 240°
2026-05-06 18:28 51.51918 7.62011 410 ft 11 kts 240°
2026-05-06 18:28 51.51875 7.61890 411 ft 13 kts 239°
2026-05-06 18:28 51.51830 7.61756 413 ft 14 kts 240°
2026-05-06 18:28 51.51781 7.61617 415 ft 13 kts 239°
2026-05-06 18:29 51.51738 7.61497 416 ft 10 kts 240°
2026-05-06 18:29 51.51727 7.61466 417 ft 2 kts 240°
2026-05-06 18:29 51.51709 7.61430 417 ft 5 kts 213°
2026-05-06 18:29 51.51677 7.61436 418 ft 3 kts 153°
2026-05-06 18:30 51.51658 7.61451 419 ft 3 kts 152°
2026-05-06 18:30 51.51642 7.61465 419 ft 0 kts 150°